Content
SEND FEEDBACK

Daily
Averages
Monthly
Summary
Canada

QUEBEC CITY, QUEBEC


Home > North America > Canada > Quebec
Elevation: 239 feet     Latitude: 46 48N     Longitude: 071 23W

WEATHER
 
SELECT A DAY
Number of Records: 192,604;   Date Range: 6/30/96 - 8/31/14
 
SHARE

PRINT THIS DATA

[ ← Previous Day ]
WEATHER ALMANAC - MAY 22, 2013
[ Next Day → ]
[ °C ]   °F
Weather ElementAverageHighLow
Temperature52.3 °F57.2 °F (5:00 pm) (2:33 pm)
Dewpoint39.2 °F54 °F (11:00 pm) (7:00 pm)
Humidity88.9 %97 % (8:00 am)68 % (2:00 am)
Wind Speed10.2 mph16.1 mph (9:00 am)
Wind Gust18.4 mph (8:41 am)
Weather ElementAverage
Visibility6.7 mi
Wind DirectionENE (69.8 °)

Weather ElementTotal
Precipitation---
Heating Degree Days36.4 (Base 65)
Averaged from 40 records on May 22, 2013
WEATHER CONDITIONS BREAKOUT
WIND DIRECTION BREAKOUT
WEATHER BY HOUR - MAY 22, 2013
[ °C ]   °F
Local TimeTemperatureDewpointHumidityBarometerVisibilityWind DirectionWind SpeedGust SpeedPrecipitationEventsConditions
1:00 AM53.6 °F44.6 °F72 %29.93 in15.0 miENE (60°)12.7 mphOvercast
2:00 AM54.0 °F46.0 °F68 %29.90 inEast (80°)8.1 mph
2:00 AM53.6 °F44.6 °F72 %29.91 in15.0 miENE (70°)11.5 mph17.3 mphRainLight Rain
3:00 AM51.8 °F48.2 °F88 %29.92 in15.0 miENE (60°)8.1 mphRainLight Rain
4:00 AM51.8 °F48.2 °F88 %29.92 in15.0 miENE (70°)10.4 mphRainLight Rain
5:00 AM51.8 °F48.2 °F88 %29.91 in3.0 miENE (70°)13.8 mphRainLight Rain
5:00 AM51.0 °F50.0 °F93 %29.89 inEast (80°)9.2 mph
6:00 AM51.8 °F50.0 °F94 %29.91 in1.5 miENE (60°)10.4 mphRainLight Rain
6:39 AM50.0 °F0.0 °F2.5 miENE (70°)11.5 mphLight Drizzle
7:00 AM51.8 °F48.2 °F88 %29.91 in2.5 miENE (70°)10.4 mph17.3 mphLight Drizzle
7:23 AM51.8 °F0.0 °F1.8 miENE (70°)13.8 mphRainLight Rain
8:00 AM51.0 °F50.0 °F97 %29.90 inEast (80°)6.9 mph
8:00 AM51.8 °F50.0 °F94 %29.92 in1.5 miENE (70°)12.7 mphRainLight Rain
8:41 AM51.8 °F0.0 °F1.0 miENE (70°)11.5 mph18.4 mphRainLight Rain
9:00 AM51.8 °F50.0 °F94 %29.92 in1.2 miENE (70°)16.1 mphRainLight Rain
10:00 AM51.8 °F50.0 °F94 %29.91 in1.2 miENE (60°)10.4 mphRainLight Rain
10:31 AM53.6 °F0.0 °F1.2 miENE (60°)10.4 mphLight Drizzle
11:00 AM53.0 °F51.0 °F92 %29.88 inEast (80°)8.1 mph
11:00 AM53.6 °F51.8 °F94 %29.90 in1.5 miENE (60°)12.7 mphLight Drizzle
12:00 PM53.6 °F51.8 °F94 %29.91 in1.5 miENE (60°)8.1 mphLight Drizzle
1:00 PM53.6 °F51.8 °F94 %29.91 in2.0 miENE (70°)9.2 mphLight Drizzle
1:25 PM53.6 °F0.0 °F3.0 miENE (60°)9.2 mphLight Drizzle
1:49 PM53.6 °F0.0 °F1.2 miENE (70°)6.9 mphRainLight Rain
2:00 PM54.0 °F53.0 °F95 %29.88 inEast (80°)6.9 mph
2:00 PM53.6 °F51.8 °F94 %29.90 in1.2 miENE (70°)8.1 mphRainLight Rain
2:33 PM0.0 °F0.0 °F3.0 miENE (70°)11.5 mphFogLight Drizzle
3:00 PM55.6 °F51.6 °F87 %29.88 in8.0 miEast (80°)9.2 mph
4:00 PM55.4 °F51.8 °F88 %29.87 in8.0 miEast (90°)10.4 mphOvercast
5:00 PM57.0 °F53.0 °F82 %29.84 inEast (80°)8.1 mph
5:00 PM57.2 °F51.8 °F82 %29.86 in15.0 miEast (80°)10.4 mphOvercast
6:00 PM55.4 °F51.8 °F88 %29.85 in10.0 miENE (70°)12.7 mphOvercast
7:00 PM55.4 °F51.8 °F88 %29.85 in15.0 miENE (70°)9.2 mphOvercast
7:34 PM55.4 °F0.0 °F15.0 miNE (50°)9.2 mphOvercast
8:00 PM55.0 °F53.0 °F89 %29.81 inENE (70°)6.9 mph
8:00 PM55.4 °F51.8 °F88 %29.83 in15.0 miENE (70°)13.8 mphOvercast
9:00 PM55.4 °F51.8 °F88 %29.81 in15.0 miENE (60°)10.4 mphOvercast
9:54 PM55.4 °F0.0 °F8.0 miENE (70°)11.5 mphRainLight Rain
10:00 PM55.4 °F53.6 °F94 %29.80 in8.0 miENE (60°)6.9 mphRainLight Rain
11:00 PM55.0 °F54.0 °F95 %29.77 inEast (80°)6.9 mph
11:00 PM55.4 °F53.6 °F94 %29.78 in6.0 miENE (70°)12.7 mphRainLight Rain
Hourly data recorded from CYQB, located miles away from Quebec City, Quebec







STORIES FROM OUR PARTNERS